Location: Geroldsau
(48.7259°N, 8.2466°E)
Time: 08:15:33
(UTC+00:00)

YAOGAN 11 - Pass Details

Date: 20 June 2021
Orbit: 613 x 668 km, 98.3° (Epoch: 03 August)

Event Time Altitude Azimuth Distance (km) Brightness Sun altitude
Exits shadow 00:35:35 28° 179° (S) 1,194 5.0 -16.3°
Maximum altitude 00:37:50 71° 257° (WSW) 687 4.1 -16.2°
Drops below altitude 10° 00:42:22 10° 342° (NNW) 2,076 7.6 -16.0°
Sets 00:44:37 0° 345° (NNW) 3,000 8.6 -15.9°
